{"data":{"norad_id":68042,"epoch":"2026-09-19T14:50:36.816288Z","epoch_age_seconds":135787,"freshness":"FRESH","line1":"1 68042U 26041C   26262.61848167  .00005584  00000+0  17630-3 0  9993","line2":"2 68042  53.1578 225.9824 0001492  93.3050 266.8123 15.34395742 31127","mean_motion":15.34395742,"eccentricity":0.0001492,"inclination_deg":53.1578,"raan_deg":225.9824,"arg_perigee_deg":93.305,"mean_anomaly_deg":266.8123,"bstar":0.0001763,"rev_number":3112,"period_min":93.848018512033,"perigee_km":461.69524065763,"apogee_km":463.73655116177,"semimajor_km":6840.8528959097,"source":"CELESTRAK","updated_at":"2026-09-20T09:00:43.747269Z"}}